Weather in Yulovo

Russia / Penza Oblast     53°20′06″N   45°38′50″E
temp.,
°C
wind,
m/s
gust,
m/s
humid.,
%
clouds,
%
prec.,
mm/h
press.,
hPa
HPBL,
m
18 may, tue
tue1800:00+16e38695 0.0 1016102
03:00+15e34615 0.0 101549
06:00+17e39625 0.0 1015172
09:00+24ese511435 0.0 1014677
12:00+27se68374 0.0 1014959
15:00+27se58410 0.0 10141320
18:00+24e410515 0.0 1013294
21:00+20e514530 0.0 1013269
19 may, wed
wed1900:00+18e415520 0.0 1013273
03:00+16e513510 0.0 1012219
06:00+17ese414625 0.0 1013343
09:00+24ese613494 0.0 1012696
12:00+27ese711405 0.0 10111616
15:00+28se611454 0.0 10112313
18:00+24ese714490 0.0 1010625
21:00+22ese917501 0.0 1011776
20 may, thu
thu2000:00+19ese7175369 0.1 1011575
03:00+18se716695 0.3 1012718
06:00+17se411810 0.3 1012636
09:00+20se456995 0.4 1012735
12:00+19sse4774100 0.4 1013702
15:00+19s61068100 0.8 10131232
18:00+19sse366882 0.2 1013483
21:00+14ssw368754 0.8 1013136
21 may, fri
fri2100:00+12s3693100 0.0 1014102
03:00+11s36965 0.0 1015123
06:00+13ssw38906 0.0 1015281
09:00+17sw5868100 0.0 1016915
12:00+20sw695942 0.3 10171715
15:00+20sw6107032 1.9 10171510
18:00+18sw497765 1.3 1017483
21:00+14w2288100 1.6 101930
22 may, sat
sat2200:00+12nw1188100 0.0 102010
03:00+13n2289100 0.3 102131
06:00+14ene228462 0.0 1022112
09:00+16ne348716 0.6 1022280
12:00+24sse5750100 0.0 10201512
15:00+26sse594963 0.0 10192031
18:00+23sse3863100 0.0 1018278
21:00+18se397498 0.0 1018137